This demonstration page uses our WeatherBlox Daily Observations layout. Learn more.

Left ArrowRight Arrow

39.08367, -84.50855

Hourly Observations for March 19, 2019

Temp ( °F °C ) Dew Point ( °F °C ) Humidity (%) Winds ( mph kmh ) Pressure ( in mb ) Visibility ( mi km ) Precip ( " mm )
12:53 am 00:53 Cloudy 33 0.6 27 -2.8 78 78 SE 6 9 30.43 1031 10 16 N/A
1:53 am 01:53 Clear 32 undefined 27 -2.8 82 82 ESE 3 6 30.43 1031 10 16 N/A
2:53 am 02:53 Clear 29 -1.7 25 -3.9 85 85 ESE 6 9 30.43 1031 10 16 N/A
3:53 am 03:53 Clear 30 -1.1 25 -3.9 82 82 VRB 3 6 30.42 1030 10 16 N/A
4:53 am 04:53 Clear 28 -2.2 26 -3.3 92 92 SE 6 9 30.42 1030 10 16 N/A
5:53 am 05:53 Clear 28 -2.2 24 -4.4 85 85 VRB 6 9 30.42 1030 10 16 N/A
6:53 am 06:53 Clear 27 -2.8 25 -3.9 92 92 SE 6 9 30.44 1031 10 16 N/A
7:53 am 07:53 Sunny 26 -3.3 24 -4.4 92 92 VRB 6 9 30.45 1031 10 16 N/A
8:53 am 08:53 Sunny 31 -0.6 26 -3.3 82 82 SE 6 9 30.47 1032 10 16 N/A
9:53 am 09:53 Sunny 37 2.8 25 -3.9 62 62 SE 6 9 30.48 1032 10 16 N/A
10:53 am 10:53 Sunny 41 5 25 -3.9 53 53 VRB 3 6 30.49 1033 10 16 N/A
11:53 am 11:53 Sunny 46 7.8 25 -3.9 44 44 VRB 5 7 30.50 1033 10 16 N/A
12:53 pm 12:53 Sunny 48 8.9 23 -5 37 37 NNE 5 7 30.47 1032 10 16 N/A
1:53 pm 13:53 Sunny 49 9.4 22 -5.6 35 35 undefined N/A 30.45 1031 10 16 N/A
2:53 pm 14:53 Sunny 51 10.6 22 -5.6 32 32 VRB 7 11 30.42 1030 10 16 N/A
3:53 pm 15:53 Sunny 52 11.1 20 -6.7 28 28 VRB 7 11 30.40 1029 10 16 N/A
4:53 pm 16:53 Sunny 52 11.1 18 -7.8 26 26 VRB 7 11 30.38 1029 10 16 N/A
5:53 pm 17:53 Sunny 51 10.6 19 -7.2 28 28 VRB 6 9 30.37 1028 10 16 N/A
6:53 pm 18:53 Sunny 50 10 19 -7.2 29 29 VRB 5 7 30.37 1028 10 16 N/A
7:53 pm 19:53 Clear 46 7.8 21 -6.1 37 37 N 5 7 30.36 1028 10 16 N/A
8:53 pm 20:53 Clear 43 6.1 26 -3.3 51 51 VRB 6 9 30.36 1028 10 16 N/A
9:53 pm 21:53 Clear 40 4.4 29 -1.7 65 65 N N/A 30.36 1028 10 16 N/A
10:53 pm 22:53 Clear 38 3.3 28 -2.2 68 68 N N/A 30.36 1028 10 16 N/A
11:53 pm 23:53 Clear 36 2.2 27 -2.8 70 70 VRB 5 7 30.35 1028 10 16 N/A

Powered by AerisWeather